N737LE SABE-SBRJ

Flight info

Callsign N737LE
Flight time 2h 29m
Altitude 37000
Route DORVO UN857 AKNUB
Aircraft B737/M-SDE2E3FGHIRWXY/LB1

Departure

Time 2026-05-04 01:57
Airport Aeroparque Jorge Newbery (SABE)

Arrival

Time 2026-05-04 04:27
Airport Santos Dumont Airport (SBRJ)
Time Latitude Longitude Altitude Speed Heading
2026-05-04 01:11 -34.56276 -58.41253 26 ft 0 kts 213°
2026-05-04 01:48 -34.56279 -58.41256 26 ft 3 kts 213°
2026-05-04 01:48 -34.56290 -58.41282 26 ft 4 kts 268°
2026-05-04 01:48 -34.56271 -58.41339 26 ft 8 kts 303°
2026-05-04 01:49 -34.56239 -58.41397 26 ft 7 kts 304°
2026-05-04 01:49 -34.56210 -58.41448 26 ft 7 kts 304°
2026-05-04 01:49 -34.56177 -58.41483 26 ft 5 kts 355°
2026-05-04 01:49 -34.56143 -58.41466 26 ft 5 kts 31°
2026-05-04 01:50 -34.56115 -58.41444 26 ft 4 kts 33°
2026-05-04 01:50 -34.56090 -58.41424 26 ft 4 kts 33°
2026-05-04 01:50 -34.56038 -58.41380 26 ft 16 kts 33°
2026-05-04 01:50 -34.55946 -58.41277 26 ft 17 kts 96°
2026-05-04 01:51 -34.56007 -58.41161 26 ft 16 kts 128°
2026-05-04 01:51 -34.56068 -58.41053 26 ft 15 kts 121°
2026-05-04 01:51 -34.56132 -58.40958 26 ft 14 kts 125°
2026-05-04 01:51 -34.56168 -58.40854 26 ft 13 kts 100°
2026-05-04 01:52 -34.56207 -58.40758 26 ft 12 kts 124°
2026-05-04 01:52 -34.56255 -58.40676 26 ft 11 kts 124°
2026-05-04 01:52 -34.56298 -58.40597 26 ft 10 kts 123°
2026-05-04 01:52 -34.56348 -58.40536 26 ft 9 kts 138°
2026-05-04 01:53 -34.56396 -58.40483 26 ft 8 kts 139°
2026-05-04 01:53 -34.56414 -58.40464 26 ft 0 kts 138°
2026-05-04 01:55 -34.56420 -58.40458 26 ft 4 kts 138°
2026-05-04 01:55 -34.56461 -58.40413 26 ft 8 kts 138°
2026-05-04 01:55 -34.56514 -58.40387 26 ft 9 kts 192°
2026-05-04 01:56 -34.56551 -58.40435 26 ft 7 kts 280°
2026-05-04 01:56 -34.56541 -58.40458 26 ft 0 kts 302°
2026-05-04 01:56 -34.56483 -58.40564 26 ft 44 kts 303°
2026-05-04 01:56 -34.56176 -58.41117 26 ft 111 kts 304°
2026-05-04 01:57 -34.55639 -58.42084 37 ft 163 kts 304°
2026-05-04 01:57 -34.54982 -58.43292 473 ft 178 kts 306°
2026-05-04 01:57 -34.54311 -58.44490 1372 ft 167 kts 312°
2026-05-04 01:57 -34.53380 -58.45311 1807 ft 175 kts 343°
2026-05-04 01:58 -34.52145 -58.45342 2298 ft 186 kts
2026-05-04 01:58 -34.50846 -58.44944 2738 ft 202 kts 15°
2026-05-04 01:58 -34.49652 -58.43887 3079 ft 232 kts 49°
2026-05-04 01:58 -34.49156 -58.41958 3644 ft 253 kts 84°
2026-05-04 01:59 -34.49527 -58.39862 4280 ft 264 kts 110°
2026-05-04 01:59 -34.50322 -58.37833 4814 ft 275 kts 113°
2026-05-04 01:59 -34.51064 -58.35627 5273 ft 287 kts 106°
2026-05-04 01:59 -34.51648 -58.33308 5956 ft 290 kts 103°
2026-05-04 02:00 -34.52175 -58.30939 6688 ft 292 kts 103°
2026-05-04 02:00 -34.52698 -58.28558 7345 ft 298 kts 104°
2026-05-04 02:00 -34.53246 -58.26116 8024 ft 302 kts 104°
2026-05-04 02:00 -34.53808 -58.23680 8787 ft 305 kts 105°
2026-05-04 02:01 -34.54412 -58.21201 9454 ft 309 kts 107°
2026-05-04 02:01 -34.55038 -58.18722 10237 ft 312 kts 107°
2026-05-04 02:01 -34.55691 -58.16149 10743 ft 327 kts 107°
2026-05-04 02:01 -34.56366 -58.13485 11112 ft 342 kts 107°
2026-05-04 02:02 -34.57074 -58.10669 11726 ft 350 kts 107°
2026-05-04 02:02 -34.57776 -58.07858 12479 ft 354 kts 108°
2026-05-04 02:02 -34.58496 -58.04970 13155 ft 358 kts 108°
2026-05-04 02:02 -34.59214 -58.02080 13865 ft 363 kts 108°
2026-05-04 02:03 -34.59943 -57.99146 14573 ft 367 kts 108°
2026-05-04 02:03 -34.60680 -57.96178 15188 ft 374 kts 108°
2026-05-04 02:03 -34.61425 -57.93169 15893 ft 378 kts 108°
2026-05-04 02:03 -34.62192 -57.90068 16523 ft 384 kts 109°
2026-05-04 02:04 -34.62960 -57.86969 17159 ft 389 kts 109°
2026-05-04 02:04 -34.63740 -57.83821 17809 ft 394 kts 109°
2026-05-04 02:04 -34.64536 -57.80600 18429 ft 399 kts 109°
2026-05-04 02:04 -34.65332 -57.77378 19004 ft 404 kts 109°
2026-05-04 02:05 -34.66132 -57.74131 19590 ft 408 kts 109°
2026-05-04 02:05 -34.66954 -57.70793 20159 ft 413 kts 109°
2026-05-04 02:05 -34.67773 -57.67461 20675 ft 419 kts 109°
2026-05-04 02:05 -34.68614 -57.64040 21242 ft 423 kts 109°
2026-05-04 02:06 -34.69329 -57.60582 21734 ft 430 kts 103°
2026-05-04 02:06 -34.69648 -57.56942 22284 ft 435 kts 92°
2026-05-04 02:06 -34.69451 -57.53249 22765 ft 441 kts 81°
2026-05-04 02:06 -34.68741 -57.49667 23239 ft 444 kts 70°
2026-05-04 02:07 -34.67517 -57.46219 23754 ft 445 kts 59°
2026-05-04 02:07 -34.65871 -57.43093 24285 ft 444 kts 51°
2026-05-04 02:07 -34.63970 -57.40132 24764 ft 446 kts 46°
2026-05-04 02:07 -34.61955 -57.37243 25278 ft 448 kts 45°
2026-05-04 02:08 -34.59906 -57.34387 25778 ft 451 kts 45°
2026-05-04 02:08 -34.57822 -57.31491 26239 ft 454 kts 45°
2026-05-04 02:08 -34.55765 -57.28614 26708 ft 457 kts 45°
2026-05-04 02:08 -34.53688 -57.25685 27170 ft 459 kts 45°
2026-05-04 02:09 -34.51620 -57.22749 27538 ft 464 kts 45°
2026-05-04 02:09 -34.49520 -57.19753 27963 ft 467 kts 46°
2026-05-04 02:09 -34.47429 -57.16758 28381 ft 470 kts 46°
2026-05-04 02:09 -34.45308 -57.13715 28850 ft 471 kts 46°
2026-05-04 02:10 -34.43196 -57.10681 29158 ft 476 kts 46°
2026-05-04 02:10 -34.41082 -57.07643 29656 ft 475 kts 46°
2026-05-04 02:10 -34.38920 -57.04535 30071 ft 477 kts 46°
2026-05-04 02:10 -34.36754 -57.01425 30412 ft 481 kts 46°
2026-05-04 02:11 -34.34580 -56.98308 30722 ft 485 kts 46°
2026-05-04 02:11 -34.32400 -56.95185 31059 ft 488 kts 46°
2026-05-04 02:11 -34.30204 -56.92038 31432 ft 490 kts 46°
2026-05-04 02:11 -34.27976 -56.88849 31806 ft 492 kts 46°
2026-05-04 02:12 -34.25783 -56.85715 32119 ft 495 kts 46°
2026-05-04 02:12 -34.23543 -56.82517 32435 ft 498 kts 47°
2026-05-04 02:12 -34.21295 -56.79312 32745 ft 501 kts 46°
2026-05-04 02:12 -34.19070 -56.76145 33049 ft 503 kts 46°
2026-05-04 02:13 -34.16793 -56.72906 33381 ft 505 kts 47°
2026-05-04 02:13 -34.14510 -56.69659 33817 ft 504 kts 47°
2026-05-04 02:13 -34.12265 -56.66467 34316 ft 503 kts 47°
2026-05-04 02:13 -34.09981 -56.63224 34765 ft 502 kts 47°
2026-05-04 02:14 -34.07729 -56.60032 35142 ft 503 kts 47°
2026-05-04 02:14 -34.05458 -56.56815 35634 ft 501 kts 47°
2026-05-04 02:14 -34.03215 -56.53641 35985 ft 502 kts 47°
2026-05-04 02:14 -34.00962 -56.50456 36414 ft 501 kts 47°
2026-05-04 02:15 -33.98690 -56.47246 36805 ft 501 kts 47°
2026-05-04 02:15 -33.96448 -56.44082 37066 ft 502 kts 47°
2026-05-04 02:15 -33.91902 -56.37682 37075 ft 502 kts 47°
2026-05-04 02:16 -33.87369 -56.31306 37074 ft 501 kts 46°
2026-05-04 02:16 -33.82817 -56.24942 37076 ft 501 kts 46°
2026-05-04 02:17 -33.78258 -56.18599 37081 ft 501 kts 46°
2026-05-04 02:17 -33.73737 -56.12289 37081 ft 501 kts 46°
2026-05-04 02:18 -33.69184 -56.05925 37082 ft 500 kts 46°
2026-05-04 02:18 -33.64674 -55.99628 37081 ft 501 kts 46°
2026-05-04 02:19 -33.60124 -55.93287 37085 ft 501 kts 46°
2026-05-04 02:19 -33.55588 -55.86979 37083 ft 501 kts 47°
2026-05-04 02:20 -33.51048 -55.80678 37083 ft 503 kts 46°
2026-05-04 02:20 -33.46478 -55.74346 37085 ft 501 kts 47°
2026-05-04 02:21 -33.41905 -55.68018 37082 ft 501 kts 47°
2026-05-04 02:21 -33.37363 -55.61742 37088 ft 503 kts 47°
2026-05-04 02:22 -33.32794 -55.55449 37087 ft 501 kts 47°
2026-05-04 02:22 -33.28212 -55.49149 37090 ft 502 kts 47°
2026-05-04 02:23 -33.23663 -55.42903 37088 ft 501 kts 47°
2026-05-04 02:23 -33.19087 -55.36628 37092 ft 501 kts 47°
2026-05-04 02:24 -33.14506 -55.30357 37091 ft 502 kts 46°
2026-05-04 02:24 -33.09924 -55.24097 37092 ft 501 kts 46°
2026-05-04 02:25 -33.05365 -55.17879 37093 ft 502 kts 47°
2026-05-04 02:25 -33.00776 -55.11630 37091 ft 502 kts 47°
2026-05-04 02:26 -32.96159 -55.05352 37089 ft 502 kts 46°
2026-05-04 02:26 -32.91543 -54.99091 37089 ft 503 kts 47°
2026-05-04 02:27 -32.86961 -54.92886 37093 ft 503 kts 47°
2026-05-04 02:27 -32.82339 -54.86639 37100 ft 503 kts 47°
2026-05-04 02:28 -32.77740 -54.80431 37096 ft 500 kts 47°
2026-05-04 02:28 -32.73140 -54.74231 37096 ft 501 kts 47°
2026-05-04 02:29 -32.68523 -54.68019 37098 ft 500 kts 47°
2026-05-04 02:29 -32.63933 -54.61855 37105 ft 501 kts 47°
2026-05-04 02:30 -32.59312 -54.55658 37108 ft 500 kts 47°
2026-05-04 02:30 -32.54720 -54.49513 37102 ft 500 kts 47°
2026-05-04 02:31 -32.50130 -54.43381 37113 ft 501 kts 47°
2026-05-04 02:31 -32.45489 -54.37190 37118 ft 500 kts 47°
2026-05-04 02:32 -32.40890 -54.31064 37121 ft 500 kts 47°
2026-05-04 02:32 -32.36276 -54.24931 37127 ft 500 kts 47°
2026-05-04 02:33 -32.31643 -54.18758 37127 ft 501 kts 47°
2026-05-04 02:33 -32.27080 -54.12582 37127 ft 500 kts 48°
2026-05-04 02:34 -32.22547 -54.06418 37125 ft 499 kts 48°
2026-05-04 02:34 -32.17973 -54.00212 37122 ft 499 kts 47°
2026-05-04 02:35 -32.13425 -53.94066 37122 ft 499 kts 48°
2026-05-04 02:35 -32.08858 -53.87906 37124 ft 499 kts 48°
2026-05-04 02:36 -32.04309 -53.81786 37123 ft 499 kts 48°
2026-05-04 02:36 -31.99758 -53.75683 37125 ft 498 kts 48°
2026-05-04 02:37 -31.95161 -53.69532 37121 ft 497 kts 48°
2026-05-04 02:37 -31.90606 -53.63462 37124 ft 498 kts 47°
2026-05-04 02:38 -31.86002 -53.57343 37123 ft 497 kts 48°
2026-05-04 02:38 -31.81438 -53.51253 37123 ft 498 kts 48°
2026-05-04 02:39 -31.76884 -53.45182 37123 ft 497 kts 48°
2026-05-04 02:39 -31.72308 -53.39097 37125 ft 496 kts 48°
2026-05-04 02:40 -31.67739 -53.33036 37125 ft 497 kts 47°
2026-05-04 02:40 -31.63147 -53.26957 37126 ft 496 kts 47°
2026-05-04 02:41 -31.58568 -53.20907 37129 ft 497 kts 47°
2026-05-04 02:41 -31.53998 -53.14878 37134 ft 497 kts 47°
2026-05-04 02:42 -31.49413 -53.08840 37139 ft 497 kts 47°
2026-05-04 02:42 -31.44803 -53.02779 37134 ft 497 kts 47°
2026-05-04 02:43 -31.40204 -52.96741 37132 ft 498 kts 47°
2026-05-04 02:43 -31.35616 -52.90723 37135 ft 496 kts 47°
2026-05-04 02:44 -31.31037 -52.84729 37133 ft 497 kts 47°
2026-05-04 02:44 -31.26430 -52.78705 37134 ft 497 kts 47°
2026-05-04 02:45 -31.21826 -52.72689 37127 ft 496 kts 47°
2026-05-04 02:45 -31.17234 -52.66704 37133 ft 497 kts 47°
2026-05-04 02:46 -31.12626 -52.60711 37133 ft 496 kts 47°
2026-05-04 02:46 -31.08010 -52.54720 37122 ft 496 kts 47°
2026-05-04 02:47 -31.03395 -52.48736 37130 ft 497 kts 47°
2026-05-04 02:47 -30.98783 -52.42764 37138 ft 497 kts 47°
2026-05-04 02:48 -30.94178 -52.36811 37130 ft 496 kts 47°
2026-05-04 02:48 -30.89544 -52.30837 37136 ft 496 kts 46°
2026-05-04 02:49 -30.84893 -52.24929 37129 ft 496 kts 45°
2026-05-04 02:49 -30.80203 -52.19087 37133 ft 494 kts 45°
2026-05-04 02:50 -30.75497 -52.13251 37131 ft 495 kts 45°
2026-05-04 02:50 -30.70796 -52.07422 37122 ft 495 kts 45°
2026-05-04 02:51 -30.66101 -52.01596 37132 ft 492 kts 46°
2026-05-04 02:51 -30.61427 -51.95795 37119 ft 493 kts 46°
2026-05-04 02:52 -30.56768 -51.90017 37132 ft 491 kts 46°
2026-05-04 02:52 -30.52115 -51.84254 37118 ft 490 kts 45°
2026-05-04 02:53 -30.47439 -51.78474 37126 ft 491 kts 45°
2026-05-04 02:53 -30.42772 -51.72684 37134 ft 491 kts 46°
2026-05-04 02:54 -30.38238 -51.66810 37132 ft 491 kts 47°
2026-05-04 02:54 -30.33744 -51.60897 37134 ft 490 kts 47°
2026-05-04 02:55 -30.26993 -51.52040 37126 ft 489 kts 47°
2026-05-04 02:56 -30.22475 -51.46152 37126 ft 489 kts 46°
2026-05-04 02:56 -30.17974 -51.40310 37139 ft 489 kts 46°
2026-05-04 02:57 -30.13448 -51.34448 37137 ft 487 kts 46°
2026-05-04 02:57 -30.08929 -51.28603 37138 ft 486 kts 45°
2026-05-04 02:58 -30.04445 -51.22810 37150 ft 486 kts 46°
2026-05-04 02:58 -29.99920 -51.16974 37141 ft 486 kts 45°
2026-05-04 02:59 -29.95432 -51.11209 37148 ft 487 kts 45°
2026-05-04 02:59 -29.90908 -51.05413 37145 ft 487 kts 45°
2026-05-04 03:00 -29.86373 -50.99616 37143 ft 488 kts 45°
2026-05-04 03:00 -29.81857 -50.93848 37146 ft 486 kts 45°
2026-05-04 03:01 -29.77331 -50.88075 37145 ft 487 kts 45°
2026-05-04 03:01 -29.72813 -50.82320 37153 ft 486 kts 45°
2026-05-04 03:02 -29.68261 -50.76528 37145 ft 486 kts 45°
2026-05-04 03:02 -29.63749 -50.70801 37148 ft 488 kts 45°
2026-05-04 03:03 -29.59174 -50.65002 37161 ft 488 kts 44°
2026-05-04 03:03 -29.54642 -50.59261 37174 ft 489 kts 44°
2026-05-04 03:04 -29.50027 -50.53466 37183 ft 489 kts 43°
2026-05-04 03:04 -29.45397 -50.47830 37194 ft 489 kts 43°
2026-05-04 03:05 -29.40698 -50.42177 37191 ft 488 kts 42°
2026-05-04 03:05 -29.36017 -50.36554 37189 ft 489 kts 43°
2026-05-04 03:06 -29.31327 -50.30906 37194 ft 487 kts 41°
2026-05-04 03:06 -29.26666 -50.25289 37202 ft 487 kts 42°
2026-05-04 03:07 -29.21991 -50.19661 37192 ft 487 kts 41°
2026-05-04 03:07 -29.17354 -50.14084 37178 ft 486 kts 41°
2026-05-04 03:08 -29.12698 -50.08492 37185 ft 485 kts 41°
2026-05-04 03:08 -29.08027 -50.02891 37179 ft 487 kts 41°
2026-05-04 03:09 -29.03382 -49.97328 37191 ft 486 kts 41°
2026-05-04 03:09 -28.98709 -49.91736 37182 ft 487 kts 41°
2026-05-04 03:10 -28.94039 -49.86161 37190 ft 487 kts 41°
2026-05-04 03:10 -28.89334 -49.80543 37182 ft 487 kts 41°
2026-05-04 03:11 -28.84733 -49.74848 37189 ft 488 kts 43°
2026-05-04 03:11 -28.80184 -49.69073 37184 ft 492 kts 43°
2026-05-04 03:12 -28.75648 -49.63308 37182 ft 488 kts 43°
2026-05-04 03:12 -28.71109 -49.57569 37176 ft 490 kts 43°
2026-05-04 03:13 -28.66533 -49.51817 37187 ft 490 kts 42°
2026-05-04 03:13 -28.61934 -49.46053 37186 ft 491 kts 43°
2026-05-04 03:14 -28.57338 -49.40306 37182 ft 491 kts 42°
2026-05-04 03:14 -28.52752 -49.34578 37186 ft 491 kts 42°
2026-05-04 03:15 -28.48176 -49.28866 37179 ft 490 kts 42°
2026-05-04 03:15 -28.43578 -49.23141 37174 ft 490 kts 41°
2026-05-04 03:16 -28.39002 -49.17448 37185 ft 490 kts 41°
2026-05-04 03:16 -28.34391 -49.11721 37178 ft 491 kts 41°
2026-05-04 03:17 -28.29790 -49.06012 37181 ft 490 kts 41°
2026-05-04 03:17 -28.25177 -49.00285 37184 ft 493 kts 41°
2026-05-04 03:18 -28.20580 -48.94523 37184 ft 492 kts 42°
2026-05-04 03:18 -28.16024 -48.88797 37189 ft 491 kts 42°
2026-05-04 03:19 -28.11443 -48.83055 37183 ft 491 kts 42°
2026-05-04 03:19 -28.06866 -48.77330 37183 ft 492 kts 41°
2026-05-04 03:20 -28.02274 -48.71595 37185 ft 492 kts 42°
2026-05-04 03:20 -27.97673 -48.65860 37189 ft 493 kts 42°
2026-05-04 03:21 -27.93083 -48.60147 37194 ft 494 kts 42°
2026-05-04 03:21 -27.88452 -48.54386 37192 ft 494 kts 41°
2026-05-04 03:22 -27.83854 -48.48679 37189 ft 493 kts 41°
2026-05-04 03:22 -27.79246 -48.42969 37196 ft 493 kts 41°
2026-05-04 03:23 -27.74621 -48.37243 37196 ft 494 kts 42°
2026-05-04 03:23 -27.70008 -48.31540 37193 ft 492 kts 41°
2026-05-04 03:24 -27.65368 -48.25808 37190 ft 494 kts 41°
2026-05-04 03:24 -27.60733 -48.20096 37187 ft 495 kts 41°
2026-05-04 03:25 -27.56073 -48.14354 37176 ft 494 kts 41°
2026-05-04 03:25 -27.51433 -48.08648 37182 ft 496 kts 41°
2026-05-04 03:26 -27.46790 -48.02946 37174 ft 493 kts 41°
2026-05-04 03:26 -27.42155 -47.97264 37172 ft 496 kts 41°
2026-05-04 03:27 -27.37490 -47.91554 37173 ft 495 kts 41°
2026-05-04 03:27 -27.32826 -47.85884 37163 ft 495 kts 40°
2026-05-04 03:28 -27.28139 -47.80216 37169 ft 496 kts 41°
2026-05-04 03:28 -27.23434 -47.74535 37169 ft 495 kts 41°
2026-05-04 03:29 -27.18740 -47.68865 37172 ft 495 kts 41°
2026-05-04 03:29 -27.14035 -47.63196 37175 ft 497 kts 41°
2026-05-04 03:30 -27.09336 -47.57535 37177 ft 497 kts 41°
2026-05-04 03:30 -27.04626 -47.51866 37188 ft 497 kts 41°
2026-05-04 03:31 -26.99934 -47.46227 37189 ft 497 kts 41°
2026-05-04 03:31 -26.95191 -47.40535 37191 ft 497 kts 41°
2026-05-04 03:32 -26.90454 -47.34856 37189 ft 499 kts 40°
2026-05-04 03:32 -26.85749 -47.29223 37191 ft 498 kts 40°
2026-05-04 03:33 -26.80985 -47.23532 37189 ft 498 kts 40°
2026-05-04 03:33 -26.76276 -47.17914 37190 ft 498 kts 40°
2026-05-04 03:34 -26.71521 -47.12250 37190 ft 500 kts 40°
2026-05-04 03:34 -26.66752 -47.06589 37191 ft 500 kts 40°
2026-05-04 03:35 -26.62006 -47.00964 37187 ft 500 kts 40°
2026-05-04 03:35 -26.57205 -46.95290 37194 ft 501 kts 40°
2026-05-04 03:36 -26.52453 -46.89700 37192 ft 499 kts 40°
2026-05-04 03:36 -26.47640 -46.84053 37192 ft 499 kts 40°
2026-05-04 03:37 -26.42877 -46.78470 37188 ft 500 kts 40°
2026-05-04 03:37 -26.38083 -46.72858 37190 ft 500 kts 40°
2026-05-04 03:38 -26.33311 -46.67274 37186 ft 499 kts 40°
2026-05-04 03:38 -26.28499 -46.61655 37187 ft 502 kts 40°
2026-05-04 03:39 -26.23671 -46.56021 37191 ft 501 kts 40°
2026-05-04 03:39 -26.18872 -46.50427 37189 ft 501 kts 40°
2026-05-04 03:40 -26.14070 -46.44838 37188 ft 501 kts 40°
2026-05-04 03:40 -26.09247 -46.39232 37182 ft 500 kts 40°
2026-05-04 03:41 -26.04431 -46.33640 37187 ft 500 kts 39°
2026-05-04 03:41 -25.99643 -46.28089 37191 ft 501 kts 39°
2026-05-04 03:42 -25.94821 -46.22507 37188 ft 501 kts 39°
2026-05-04 03:42 -25.90000 -46.16930 37188 ft 500 kts 39°
2026-05-04 03:43 -25.85177 -46.11357 37191 ft 500 kts 39°
2026-05-04 03:43 -25.80356 -46.05795 37188 ft 499 kts 39°
2026-05-04 03:44 -25.75548 -46.00253 37188 ft 499 kts 39°
2026-05-04 03:44 -25.70727 -45.94706 37188 ft 499 kts 39°
2026-05-04 03:45 -25.65937 -45.89199 37186 ft 499 kts 39°
2026-05-04 03:45 -25.61094 -45.83641 37188 ft 500 kts 39°
2026-05-04 03:46 -25.56263 -45.78101 37187 ft 500 kts 39°
2026-05-04 03:46 -25.51457 -45.72601 37182 ft 498 kts 39°
2026-05-04 03:47 -25.46650 -45.67107 37180 ft 497 kts 39°
2026-05-04 03:47 -25.41842 -45.61616 37180 ft 498 kts 39°
2026-05-04 03:48 -25.37021 -45.56117 37181 ft 498 kts 39°
2026-05-04 03:48 -25.32222 -45.50652 37176 ft 498 kts 39°
2026-05-04 03:49 -25.27395 -45.45159 37177 ft 496 kts 39°
2026-05-04 03:49 -25.22601 -45.39711 37176 ft 496 kts 39°
2026-05-04 03:50 -25.17798 -45.34262 37174 ft 496 kts 38°
2026-05-04 03:50 -25.12998 -45.28816 37177 ft 493 kts 38°
2026-05-04 03:51 -25.08194 -45.23378 37173 ft 496 kts 38°
2026-05-04 03:51 -25.03404 -45.17961 37174 ft 494 kts 38°
2026-05-04 03:52 -24.98608 -45.12544 37171 ft 494 kts 38°
2026-05-04 03:52 -24.93812 -45.07130 37173 ft 493 kts 38°
2026-05-04 03:53 -24.89025 -45.01738 37173 ft 493 kts 38°
2026-05-04 03:53 -24.84220 -44.96333 37174 ft 493 kts 38°
2026-05-04 03:54 -24.79433 -44.90950 37175 ft 493 kts 38°
2026-05-04 03:54 -24.74614 -44.85541 37174 ft 494 kts 38°
2026-05-04 03:55 -24.69811 -44.80156 37173 ft 495 kts 38°
2026-05-04 03:55 -24.64995 -44.74757 37173 ft 494 kts 38°
2026-05-04 03:56 -24.60179 -44.69367 37173 ft 495 kts 38°
2026-05-04 03:56 -24.55377 -44.63998 37174 ft 493 kts 38°
2026-05-04 03:57 -24.50470 -44.58738 37173 ft 491 kts 33°
2026-05-04 03:57 -24.47800 -44.56466 37173 ft 479 kts 25°
2026-05-04 03:57 -24.45004 -44.54569 37174 ft 474 kts 20°
2026-05-04 03:58 -24.36272 -44.49689 37175 ft 467 kts 16°
2026-05-04 03:58 -24.30400 -44.46551 37172 ft 469 kts 17°
2026-05-04 03:59 -24.24563 -44.43372 37171 ft 468 kts 17°
2026-05-04 03:59 -24.18737 -44.40155 37173 ft 471 kts 17°
2026-05-04 04:00 -24.12888 -44.36904 37172 ft 470 kts 17°
2026-05-04 04:00 -24.07080 -44.33669 37172 ft 467 kts 17°
2026-05-04 04:01 -24.01275 -44.30437 37174 ft 468 kts 17°
2026-05-04 04:01 -23.95521 -44.27017 37173 ft 478 kts 23°
2026-05-04 04:02 -23.90395 -44.22230 37174 ft 496 kts 41°
2026-05-04 04:02 -23.86305 -44.16049 37174 ft 508 kts 53°
2026-05-04 04:03 -23.82796 -44.09310 37172 ft 507 kts 51°
2026-05-04 04:03 -23.80696 -44.06278 37174 ft 496 kts 39°
2026-05-04 04:03 -23.78146 -44.03778 37175 ft 485 kts 28°
2026-05-04 04:04 -23.75350 -44.01786 37174 ft 474 kts 20°
2026-05-04 04:04 -23.72471 -44.00155 37174 ft 467 kts 16°
2026-05-04 04:04 -23.66516 -43.97559 37128 ft 452 kts
2026-05-04 04:05 -23.63458 -43.96857 36696 ft 446 kts 358°
2026-05-04 04:05 -23.60345 -43.96519 35888 ft 445 kts 352°
2026-05-04 04:05 -23.57275 -43.96561 35047 ft 442 kts 346°
2026-05-04 04:05 -23.54275 -43.96968 34209 ft 433 kts 340°
2026-05-04 04:06 -23.51350 -43.97736 33366 ft 427 kts 334°
2026-05-04 04:06 -23.48601 -43.98826 32588 ft 424 kts 329°
2026-05-04 04:06 -23.45828 -44.00006 31819 ft 430 kts 332°
2026-05-04 04:06 -23.42920 -44.00943 31054 ft 441 kts 338°
2026-05-04 04:07 -23.39882 -44.01543 30296 ft 452 kts 344°
2026-05-04 04:07 -23.36720 -44.01772 29533 ft 464 kts 351°
2026-05-04 04:07 -23.33472 -44.01619 28779 ft 472 kts 356°
2026-05-04 04:07 -23.30163 -44.01268 28029 ft 479 kts 358°
2026-05-04 04:08 -23.26864 -44.00867 27291 ft 481 kts 359°
2026-05-04 04:08 -23.23499 -44.00209 26531 ft 494 kts
2026-05-04 04:08 -23.20370 -43.98644 25802 ft 513 kts 28°
2026-05-04 04:08 -23.17707 -43.95990 25059 ft 526 kts 48°
2026-05-04 04:09 -23.15915 -43.92586 24320 ft 519 kts 68°
2026-05-04 04:09 -23.15194 -43.88839 23590 ft 504 kts 88°
2026-05-04 04:09 -23.15590 -43.85160 22872 ft 484 kts 109°
2026-05-04 04:09 -23.17014 -43.81966 22130 ft 461 kts 130°
2026-05-04 04:10 -23.19250 -43.79615 21400 ft 441 kts 152°
2026-05-04 04:10 -23.22019 -43.78334 20654 ft 417 kts 174°
2026-05-04 04:10 -23.24812 -43.78248 19924 ft 393 kts 193°
2026-05-04 04:10 -23.27385 -43.78962 19194 ft 376 kts 208°
2026-05-04 04:11 -23.29483 -43.80522 18464 ft 358 kts 229°
2026-05-04 04:11 -23.30789 -43.82717 17740 ft 345 kts 251°
2026-05-04 04:11 -23.31161 -43.85244 17035 ft 339 kts 271°
2026-05-04 04:11 -23.30754 -43.87712 16338 ft 336 kts 287°
2026-05-04 04:12 -23.29738 -43.89999 15626 ft 335 kts 301°
2026-05-04 04:12 -23.28184 -43.91864 14920 ft 336 kts 318°
2026-05-04 04:12 -23.26223 -43.93205 14214 ft 336 kts 332°
2026-05-04 04:12 -23.24058 -43.94154 13496 ft 335 kts 337°
2026-05-04 04:13 -23.21880 -43.95047 12755 ft 333 kts 336°
2026-05-04 04:13 -23.19645 -43.95733 11996 ft 336 kts 352°
2026-05-04 04:13 -23.17340 -43.95464 11264 ft 338 kts 17°
2026-05-04 04:13 -23.15323 -43.94218 10725 ft 332 kts 39°
2026-05-04 04:14 -23.13792 -43.92411 10460 ft 317 kts 51°
2026-05-04 04:14 -23.12619 -43.90455 10227 ft 304 kts 59°
2026-05-04 04:14 -23.11658 -43.88442 10000 ft 295 kts 62°
2026-05-04 04:14 -23.10783 -43.86469 9760 ft 288 kts 62°
2026-05-04 04:15 -23.09924 -43.84534 9519 ft 282 kts 62°
2026-05-04 04:15 -23.09063 -43.82641 9281 ft 276 kts 62°
2026-05-04 04:15 -23.08205 -43.80787 9045 ft 274 kts 62°
2026-05-04 04:15 -23.07341 -43.78938 8808 ft 279 kts 62°
2026-05-04 04:16 -23.06461 -43.77060 8577 ft 277 kts 62°
2026-05-04 04:16 -23.05591 -43.75206 8337 ft 274 kts 62°
2026-05-04 04:16 -23.04732 -43.73376 8095 ft 273 kts 62°
2026-05-04 04:16 -23.03876 -43.71552 8003 ft 270 kts 62°
2026-05-04 04:17 -23.03019 -43.69714 8006 ft 273 kts 62°
2026-05-04 04:17 -23.02202 -43.67885 7885 ft 268 kts 63°
2026-05-04 04:17 -23.01411 -43.66053 7596 ft 264 kts 64°
2026-05-04 04:17 -23.00631 -43.64241 7276 ft 267 kts 64°
2026-05-04 04:18 -22.99843 -43.62427 7021 ft 266 kts 64°
2026-05-04 04:18 -22.99044 -43.60604 7012 ft 266 kts 64°
2026-05-04 04:18 -22.98252 -43.58806 7007 ft 267 kts 63°
2026-05-04 04:18 -22.97443 -43.56972 6959 ft 263 kts 64°
2026-05-04 04:19 -22.96665 -43.55200 6743 ft 259 kts 64°
2026-05-04 04:19 -22.95886 -43.53435 6422 ft 264 kts 64°
2026-05-04 04:19 -22.95093 -43.51639 6102 ft 261 kts 64°
2026-05-04 04:19 -22.94320 -43.49865 5888 ft 260 kts 65°
2026-05-04 04:20 -22.93570 -43.48096 5538 ft 261 kts 65°
2026-05-04 04:20 -22.92820 -43.46309 5242 ft 257 kts 66°
2026-05-04 04:20 -22.92078 -43.44551 4959 ft 254 kts 66°
2026-05-04 04:20 -22.91350 -43.42831 4760 ft 247 kts 66°
2026-05-04 04:21 -22.90631 -43.41142 4500 ft 243 kts 66°
2026-05-04 04:21 -22.89939 -43.39511 4278 ft 239 kts 66°
2026-05-04 04:21 -22.89248 -43.37881 4066 ft 234 kts 66°
2026-05-04 04:21 -22.88587 -43.36299 3861 ft 229 kts 69°
2026-05-04 04:22 -22.88171 -43.34648 3661 ft 221 kts 85°
2026-05-04 04:22 -22.88212 -43.33014 3467 ft 213 kts 95°
2026-05-04 04:22 -22.88328 -43.31451 3279 ft 206 kts 94°
2026-05-04 04:22 -22.88408 -43.29923 3097 ft 200 kts 93°
2026-05-04 04:23 -22.88464 -43.28448 2924 ft 193 kts 92°
2026-05-04 04:23 -22.88519 -43.27011 2765 ft 186 kts 94°
2026-05-04 04:23 -22.88740 -43.25659 2612 ft 179 kts 109°
2026-05-04 04:23 -22.89234 -43.24421 2349 ft 178 kts 114°
2026-05-04 04:24 -22.89735 -43.23207 2117 ft 176 kts 113°
2026-05-04 04:24 -22.90201 -43.21988 1902 ft 172 kts 112°
2026-05-04 04:24 -22.90688 -43.20836 1725 ft 163 kts 121°
2026-05-04 04:24 -22.91482 -43.20015 1502 ft 153 kts 149°
2026-05-04 04:25 -22.92425 -43.19563 1275 ft 145 kts 160°
2026-05-04 04:25 -22.93406 -43.19356 1126 ft 143 kts 172°
2026-05-04 04:25 -22.94304 -43.18923 910 ft 140 kts 127°
2026-05-04 04:25 -22.94587 -43.17939 756 ft 139 kts 89°
2026-05-04 04:26 -22.94377 -43.16960 580 ft 130 kts 61°
2026-05-04 04:26 -22.93729 -43.16316 484 ft 128 kts 19°
2026-05-04 04:26 -22.92835 -43.16210 391 ft 128 kts
2026-05-04 04:26 -22.91961 -43.16221 119 ft 123 kts 358°
2026-05-04 04:27 -22.91165 -43.16273 21 ft 94 kts 355°
2026-05-04 04:27 -22.90756 -43.16302 21 ft 34 kts 355°
2026-05-04 04:27 -22.90544 -43.16317 21 ft 21 kts 351°
2026-05-04 04:27 -22.90496 -43.16441 19 ft 19 kts 266°
2026-05-04 04:28 -22.90520 -43.16551 21 ft 14 kts 213°
2026-05-04 04:28 -22.90618 -43.16566 21 ft 13 kts 178°
2026-05-04 04:28 -22.90713 -43.16560 21 ft 13 kts 175°
2026-05-04 04:28 -22.90804 -43.16560 21 ft 12 kts 188°
2026-05-04 04:29 -22.90892 -43.16566 21 ft 12 kts 175°
2026-05-04 04:29 -22.90965 -43.16564 21 ft 5 kts 198°
2026-05-04 04:29 -22.90983 -43.16597 21 ft 5 kts 262°
2026-05-04 04:29 -22.90984 -43.16615 21 ft 0 kts 264°
2026-05-04 04:30 -22.91008 -43.16604 21 ft 0 kts 264°
2026-05-04 04:30 -22.91014 -43.16606 21 ft 0 kts 264°